SCP
0 0 0 0 0 0 0 1 1 2 2 2 3 4 4 4 5 6 7 8 10 12 11 9 7 7 7 8 10 10 8 6 5 5 4 4 4 4 4 4 4 4 4 4
0 0 0 0 0 0 1 1 2 2 2 3 5 6 6 5 5 6 7 8 10 12 11 8 8 8 8 8 8 9 9 7 6 5 5 4 4 5 4 4 5 5 5 4
1 1 0 0 0 0 1 2 2 2 3 6 8 8 7 5 5 6 7 8 10 11 10 9 8 8 8 8 8 8 8 8 7 6 5 5 5 5 5 5 6 6 6 6
1 1 1 1 0 1 1 3 3 3 5 9 9 8 6 5 5 6 7 8 10 11 10 9 8 8 8 8 9 8 8 8 7 7 7 6 5 5 5 6 6 7 6 6
1 1 1 1 1 1 1 2 3 4 7 9 8 6 5 5 5 6 8 10 12 12 11 10 9 8 9 10 10 10 9 9 9 9 8 7 7 6 6 6 6 6 5 5
0 1 1 1 1 1 2 3 4 6 8 8 7 6 5 6 7 9 12 15 16 15 12 11 9 9 10 11 11 11 11 12 12 12 11 10 10 9 8 7 6 5 5 5
0 0 1 1 1 2 4 5 7 9 10 9 7 7 8 9 10 12 15 18 18 16 15 13 12 11 12 13 13 14 14 14 14 15 14 14 13 12 10 8 6 6 5 5
1 1 1 1 1 2 5 7 9 10 9 8 9 11 12 11 11 13 15 16 15 16 18 18 16 15 15 16 18 20 20 19 17 16 16 16 16 14 12 9 7 7 6 6
2 2 2 2 1 2 4 6 7 7 6 8 11 13 12 10 10 12 14 14 13 14 16 19 19 19 18 18 21 23 23 21 19 18 17 17 17 16 13 10 8 8 7 7
3 3 2 2 3 3 4 4 5 5 6 9 11 11 10 9 9 11 14 14 13 13 13 14 16 18 18 16 17 20 20 20 19 18 17 17 17 15 12 10 8 8 8 8
3 3 3 3 4 4 4 5 5 6 7 7 8 7 7 8 10 12 14 15 14 13 11 10 10 13 14 13 12 13 14 15 15 15 14 14 13 11 9 7 6 6 7 7
3 2 3 4 4 4 4 4 5 6 7 6 5 5 7 8 10 13 14 15 14 12 10 9 8 9 10 10 8 8 9 10 10 10 10 10 9 8 6 4 3 3 4 4
2 3 3 4 4 3 3 3 3 5 5 5 5 6 8 10 12 14 14 13 12 10 9 9 8 8 8 8 7 6 6 6 6 5 6 6 7 7 5 3 2 1 1 1
3 3 4 3 2 2 1 1 2 3 5 6 7 8 9 11 13 14 13 11 10 9 9 8 8 9 8 8 7 6 5 4 4 4 4 5 5 5 5 4 2 2 1 1
3 3 3 2 1 1 1 1 1 3 4 6 7 9 10 10 11 11 11 11 10 10 11 11 11 10 10 9 8 7 5 3 3 4 4 4 4 4 4 3 2 2 2 1
3 2 1 1 1 1 1 1 1 2 3 5 6 8 9 9 9 9 9 10 11 12 14 15 14 13 12 10 9 8 6 5 4 4 6 7 6 4 3 3 2 2 2 1
2 1 1 1 1 1 1 1 1 1 2 3 4 5 7 8 8 8 8 9 12 13 15 17 17 15 13 10 9 8 8 6 5 7 11 11 9 6 4 3 2 2 2 1
2 2 1 1 1 1 1 1 1 1 2 2 3 4 6 8 9 9 9 9 11 12 13 14 14 12 9 7 6 7 6 5 5 8 11 12 9 7 5 4 3 2 2 2
3 3 3 2 2 1 1 1 1 2 2 2 3 4 6 8 9 10 9 9 9 9 9 8 7 5 4 3 3 4 4 3 3 5 6 7 7 7 5 4 3 3 2 2
2 2 2 2 2 2 2 2 2 2 2 3 3 5 7 9 9 9 8 6 5 5 4 3 2 2 2 1 1 2 2 2 2 3 3 3 4 5 4 3 3 3 3 2
1 1 2 2 2 2 2 2 3 3 2 3 4 6 8 9 9 8 6 4 3 3 2 2 2 1 1 1 0 1 1 1 2 2 2 2 2 3 3 2 3 3 2 2
2 2 2 2 3 3 3 3 3 3 3 3 5 7 8 9 8 7 5 3 2 2 2 2 1 1 1 0 0 0 0 1 1 2 2 2 2 2 2 2 2 3 2 2
4 4 4 4 3 3 3 3 3 3 3 4 5 6 7 7 6 4 3 2 2 1 2 1 1 0 0 0 0 1 1 1 2 2 2 2 2 2 2 2 2 3 3 2
5 4 4 3 3 2 2 2 2 3 3 4 5 6 6 6 4 3 2 1 1 1 1 1 0 0 0 0 1 1 1 2 2 2 2 2 1 1 1 1 2 3 3 3
3 3 2 2 2 2 2 1 2 2 3 3 4 4 5 4 3 2 2 1 1 1 0 0 0 0 1 1 1 1 1 1 1 1 1 1 2 2 2 2 2 3 4 4
2 2 1 1 2 3 2 1 1 2 2 2 3 3 3 3 2 2 1 1 1 0 0 0 0 0 1 1 1 1 1 0 0 0 1 1 2 3 3 3 4 4 5 5
2 2 1 1 2 2 2 1 1 1 2 2 2 2 2 2 2 1 1 1 1 1 0 0 0 0 0 0 1 1 1 1 0 0 1 1 2 3 3 4 4 4 4 4
Wind_Speed
12 12 11 10 10 9 10 10 8 5 4 2 3 4 4 4 6 5 4 3 3 3 3 2 2 1 1 1 1 1 1 2 2 1 1 2 2 2 2 2 3 2 2 2
12 12 12 11 11 10 11 9 7 6 3 1 4 4 3 3 4 4 3 3 3 3 3 2 1 1 1 1 1 1 0 1 1 1 1 1 1 1 1 2 2 2 2 2
11 11 12 14 10 9 7 5 5 4 2 1 4 3 4 3 3 4 3 2 2 2 2 2 1 1 1 1 1 1 1 0 0 1 1 1 2 1 2 2 2 2 2 2
10 11 14 7 6 7 6 5 4 2 1 2 4 6 6 3 3 3 3 2 2 2 1 1 2 2 1 0 1 1 0 0 0 1 1 1 2 2 2 2 2 2 2 2
8 10 10 8 5 5 7 4 2 2 1 1 2 3 4 4 4 3 3 3 2 1 2 2 2 2 1 1 1 1 0 1 1 1 1 2 2 2 2 1 1 2 1 1
10 10 10 4 4 6 8 4 3 4 3 3 2 1 2 5 5 3 3 3 3 3 3 3 3 2 1 2 2 1 1 1 1 1 2 2 1 1 1 1 2 2 2 2
12 12 6 3 5 6 6 2 5 5 5 5 5 4 4 5 4 3 3 4 3 3 3 3 3 3 2 2 2 2 1 1 1 1 2 1 1 1 1 1 2 2 2 2
10 11 5 3 3 4 4 5 6 6 6 6 5 5 4 5 5 5 4 4 3 3 3 3 3 3 2 2 2 2 1 1 1 1 1 1 1 1 1 1 1 2 2 2
4 2 3 4 4 4 4 4 4 4 5 4 3 3 4 4 4 3 3 3 2 2 2 2 2 2 2 3 3 2 2 1 1 1 1 1 1 1 1 1 2 2 2 2
3 1 1 2 3 3 4 4 4 3 3 4 4 4 3 3 3 2 2 1 1 1 2 2 2 2 2 2 2 2 1 1 1 0 0 0 0 1 1 1 1 1 1 1
4 3 2 2 3 3 3 3 4 4 3 3 3 3 3 2 2 1 1 2 1 1 1 1 2 2 2 2 2 1 1 0 1 1 1 1 0 1 1 1 1 1 1 1
4 2 3 3 3 2 2 2 3 3 4 4 4 3 2 2 1 1 1 1 1 1 1 1 1 1 1 1 1 1 1 1 1 1 1 0 0 1 3 1 2 2 1 0
2 3 3 3 3 3 3 3 3 3 4 4 3 3 2 2 2 1 1 1 1 1 1 0 0 0 0 0 0 0 1 1 2 2 1 1 1 1 0 1 2 3 2 1
1 2 4 4 3 4 5 5 5 4 4 4 3 3 2 1 1 1 1 1 1 1 1 1 0 1 1 0 0 1 1 2 2 2 2 1 1 1 1 1 0 1 1 1
3 4 6 5 4 5 5 5 6 5 4 3 3 2 2 1 1 1 1 1 1 1 1 1 1 0 1 1 1 2 2 2 2 1 1 1 1 1 1 1 0 1 1 1
6 6 6 6 6 6 6 7 6 5 3 3 2 2 2 1 1 1 1 1 1 1 0 1 1 1 1 1 2 2 2 1 2 2 2 1 1 1 0 0 0 1 1 1
6 7 6 7 7 7 7 6 5 5 4 3 3 2 2 1 1 1 2 1 1 1 1 0 0 1 1 1 2 2 2 1 2 2 1 0 1 1 0 0 1 1 1 1
6 6 6 5 5 5 5 5 5 5 4 3 3 2 2 2 2 2 2 1 1 1 0 1 1 0 1 1 2 2 2 1 2 2 1 1 1 1 0 0 1 0 1 2
4 4 4 4 3 3 4 4 4 3 3 3 2 2 1 2 2 1 1 1 2 1 1 1 1 1 1 1 2 2 2 1 1 1 1 1 2 1 1 1 1 1 1 1
3 2 2 1 1 2 2 3 2 2 2 2 2 2 1 1 1 2 2 2 1 1 0 1 2 2 1 0 3 2 2 1 1 1 2 2 2 2 2 2 1 1 1 0
2 1 0 1 1 2 2 2 2 1 2 2 2 2 2 2 2 2 2 2 1 0 1 2 2 1 0 1 3 3 2 1 1 1 1 2 2 1 2 2 2 1 1 1
2 1 0 0 1 2 2 1 0 1 1 2 2 2 2 2 3 2 2 2 2 1 1 2 1 1 1 3 3 3 2 1 1 1 1 2 1 1 1 1 1 1 1 1
3 2 1 1 1 1 1 1 1 1 1 2 2 2 3 2 3 3 2 2 2 2 2 1 1 2 1 3 2 2 2 1 1 1 1 1 1 1 1 1 1 2 1 1
3 2 1 1 1 1 2 2 1 1 2 3 3 3 3 3 3 2 1 3 3 3 2 2 4 3 4 3 2 2 1 1 1 1 1 1 1 1 1 1 1 1 1 1
2 2 2 1 1 2 2 2 2 2 3 3 3 3 2 2 1 0 1 2 4 4 3 4 6 6 4 3 2 2 1 1 2 2 1 1 1 1 1 1 1 1 1 1
2 2 2 2 2 2 2 2 2 2 3 2 1 1 1 1 1 1 1 2 2 2 2 2 3 4 4 3 2 2 2 1 2 2 2 2 1 1 1 1 2 1 1 1
2 1 1 2 2 2 2 2 2 2 2 1 1 1 1 1 1 1 1 1 1 1 1 1 2 2 2 2 2 2 2 1 1 1 0 0 1 1 1 2 1 1 1 1
Wind_Direction
274 277 282 273 269 262 261 265 271 271 246 188 132 106 105 106 109 110 108 106 102 104 103 102 98 90 105 125 116 118 192 202 201 215 223 237 240 235 232 238 244 251 259 261
273 269 271 268 262 256 257 263 264 268 276 81 109 102 104 101 110 105 90 78 80 95 106 108 100 79 57 50 77 107 145 233 199 202 216 232 237 225 239 243 261 263 259 260
270 261 257 255 258 258 261 276 278 269 280 88 98 84 80 85 89 94 88 78 71 85 94 128 126 95 66 45 103 115 123 236 198 205 213 235 247 233 246 244 249 261 261 254
269 272 263 260 273 276 264 273 274 273 343 42 77 88 89 89 78 80 68 75 76 78 78 64 100 82 45 107 134 130 141 276 306 275 252 251 246 238 241 241 247 251 255 265
265 263 256 261 277 291 283 274 289 287 330 42 90 107 94 72 65 55 64 63 62 66 80 71 64 72 39 11 88 94 15 332 323 276 263 271 254 245 243 239 251 247 244 260
259 261 259 262 291 293 275 250 13 21 19 12 2 296 51 59 64 51 57 65 53 44 59 61 56 70 60 31 46 37 3 341 339 325 295 274 265 257 246 233 230 241 247 246
255 258 253 297 322 305 276 10 33 35 24 19 31 32 47 48 50 58 62 68 63 45 45 54 45 49 53 36 21 10 358 7 357 346 304 284 279 268 234 227 226 230 250 253
250 256 249 336 314 335 43 45 36 31 29 31 41 50 46 52 47 39 59 66 58 44 38 43 37 36 28 23 17 21 29 21 350 335 306 331 348 303 247 225 233 231 238 249
275 283 53 48 50 64 65 50 40 33 23 26 30 31 40 61 66 55 33 58 63 52 43 40 41 37 23 14 15 21 21 17 5 3 349 3 336 294 271 235 237 243 241 239
296 284 8 48 66 52 44 20 15 18 5 3 14 13 29 42 43 53 51 26 38 40 29 27 36 45 50 28 25 29 26 7 337 331 260 336 291 267 268 257 252 255 256 273
267 280 311 333 350 357 22 7 354 353 348 352 352 350 7 9 23 33 35 3 18 28 9 13 38 40 34 28 23 13 18 336 296 305 320 52 41 341 316 352 358 291 301 314
270 297 291 289 317 342 335 327 333 333 329 328 324 321 337 343 348 11 19 3 8 16 4 14 28 38 30 38 53 14 334 318 282 272 283 216 203 27 29 34 77 69 41 268
326 333 325 314 312 309 301 300 301 302 303 303 310 314 323 332 333 345 354 7 346 331 327 333 340 25 11 357 348 335 307 294 271 254 248 240 216 212 270 14 42 40 32 66
320 290 278 280 284 296 293 287 286 287 295 303 298 297 301 311 320 313 305 286 299 306 287 260 279 316 344 4 311 271 261 264 272 253 239 252 245 219 223 244 330 24 19 118
268 262 261 266 266 267 273 272 273 276 291 302 306 301 290 286 292 290 294 285 282 261 256 272 285 350 359 299 263 265 270 255 267 258 250 255 249 235 224 213 172 82 70 75
277 264 259 255 251 262 271 271 273 275 286 294 302 303 292 282 278 274 268 255 255 264 274 320 325 331 320 309 299 280 275 268 266 257 239 246 243 254 274 4 62 91 82 53
267 263 257 252 247 253 264 270 272 274 274 281 283 272 266 269 267 262 266 246 232 225 199 151 358 329 326 333 321 307 305 314 290 258 240 255 302 293 228 252 258 223 149 121
266 265 264 261 256 252 256 266 267 268 267 268 279 267 249 245 253 261 266 264 237 222 212 145 139 281 314 328 315 314 326 327 335 347 5 6 321 314 330 356 328 13 93 119
269 267 267 266 268 264 257 250 248 262 264 249 242 243 234 240 248 256 260 251 240 220 198 162 174 213 249 304 316 294 296 299 314 2 353 306 290 325 334 342 357 22 63 113
297 283 276 299 308 295 286 262 234 224 229 226 225 220 223 237 239 245 242 238 256 277 145 166 213 229 240 332 309 286 281 277 309 10 2 337 337 345 339 340 1 351 320 307
342 337 14 62 3 320 309 290 251 222 216 211 207 210 231 243 236 230 234 227 185 203 228 203 214 222 233 319 284 275 270 282 305 339 309 294 307 331 330 340 346 339 332 323
359 347 326 42 334 314 313 312 265 230 228 210 206 210 220 234 234 219 212 219 196 143 220 221 197 101 15 300 278 280 284 295 331 336 307 296 297 297 304 319 320 319 315 311
359 352 345 320 306 297 304 300 268 243 222 221 223 223 227 248 247 233 207 185 175 183 230 208 137 151 275 276 275 282 300 318 319 315 310 298 288 278 284 295 296 299 306 297
351 336 312 293 267 284 289 286 286 268 236 218 220 221 231 235 237 236 204 159 159 174 212 161 175 202 243 260 272 272 270 281 285 270 270 272 283 275 284 295 300 310 324 320
333 326 311 287 252 252 257 265 259 257 252 233 220 209 218 219 234 210 131 137 145 177 202 180 189 204 227 239 246 263 275 291 292 295 296 299 290 294 315 317 331 355 358 348
309 296 292 277 272 268 267 266 257 255 251 235 226 210 190 169 159 150 147 152 165 197 215 188 188 203 224 233 232 241 235 237 264 281 311 316 333 357 5 357 3 358 354 13
265 267 270 275 273 263 257 260 264 267 272 243 218 230 234 232 188 155 154 142 178 223 236 216 226 234 231 230 227 218 211 215 241 262 311 347 359 6 11 1 360 3 4 33